Flag for U.S.A. Weather past 2 weeks in Lincoln, Nebraska, U.S.A.

Now
27 °F

Mostly cloudy.


Feels Like: 18 °F
Forecast: 10 / 26 °F
Wind: 9 mph from Northeast

Location: Lincoln Municipal Airport

Current Time: Dec 28, 2014 at 9:26:11 PM

Latest Report: Dec 28, 2014 at 8:54 PM


Visibility: 9 mi

Pressure: 30.22 "Hg

Humidity: 81%

Dew point: 22 °F

Location of LincolnLocation

Historic Weather in Lincoln — Graph

°F

Lincoln temperature yesterday

Maximum temperature yesterday: 28 °F (at 2:54 PM)
Minimum temperature yesterday: 15 °F (at 8:54 PM)
Average temperature yesterday: 22 °F

Past Weeks' High & Low Weather Summary

 TemperatureHumidityPressure
High58 °F (Dec 14, 11:54 AM)97% (Dec 13, 7:54 PM)30.43 "Hg (Dec 13, 7:54 PM)
Low13 °F (Dec 28, 7:54 AM)46% (Dec 25, 2:54 PM)29.44 "Hg (Dec 22, 1:54 PM)
Average34 °F83%30.00 "Hg
* Reported Dec 13 7:54 PM — Dec 28 7:54 PM, Lincoln, Weather by CustomWeather, © 2014

Note: Actual official high and low records may vary slightly from our data, if they occured in-between our weather recording intervals... More about our weather records

Advertising

Lincoln weather history for previous 24 hours

 ConditionsComfort  
Time TempWeatherWind HumidityBarometerVisibility
7:54 PM
Dec 28
29 °FOvercast.8 mph75%30.22 "Hg10 mi
6:54 PM30 °FOvercast.6 mph69%30.19 "Hg10 mi
5:54 PM31 °FOvercast.7 mph69%30.17 "Hg10 mi
4:54 PM31 °FOvercast.5 mph67%30.16 "Hg10 mi
3:54 PM34 °FSunny.No wind54%30.16 "Hg10 mi
2:54 PM33 °FSunny.3 mph56%30.15 "Hg10 mi
1:54 PM33 °FSunny.3 mph54%30.16 "Hg10 mi
12:54 PM31 °FSunny.No wind57%30.18 "Hg10 mi
11:54 AM28 °FSunny.5 mph64%30.20 "Hg10 mi
10:54 AM26 °FSunny.6 mph66%30.22 "Hg10 mi
9:54 AM21 °FSunny.8 mph74%30.23 "Hg10 mi
8:54 AM18 °FSunny.6 mph77%30.22 "Hg9 mi
7:54 AM13 °FSunny.5 mph84%30.22 "Hg10 mi
6:54 AM14 °FClear.3 mph84%30.21 "Hg10 mi
5:54 AM17 °FClear.No wind76%30.20 "Hg10 mi
4:54 AM18 °FClear.6 mph77%30.21 "Hg10 mi
3:54 AM17 °FClear.6 mph80%30.22 "Hg10 mi
2:54 AM18 °FClear.5 mph80%30.23 "Hg10 mi
1:54 AM16 °FClear.3 mph84%30.24 "Hg10 mi
12:54 AM19 °FClear.6 mph77%30.25 "Hg10 mi
11:54 PM
Dec 27
17 °FClear.No wind80%30.27 "Hg10 mi
10:54 PM15 °FClear.5 mph83%30.29 "Hg10 mi
9:54 PM18 °FClear.3 mph80%30.31 "Hg10 mi
Weather by CustomWeather, © 2014

See weather overviewHow to use our weather pages